Powrót do katalogu

ONEWEB-0090

AktywnyŁącznośćPO
NORAD 45427·PAYLOAD·🇬🇧 United Kingdom

Wystrzelony Mar 21, 2020 z Baikonur Cosmodrome

Loading…

Następne Przeloty (najbliższe 24 godziny)

TLE

ŚwieżeSource: CelesTrak SupGP

Epoka: Sep 14, 2026, 15:43 UTC

1 45427C 20020D   26257.65505046  .00001835  00000+0  51825-2 0  2575
2 45427  87.8980   3.2921 0001726 101.1210   4.1243 13.11414229    16

Śledź ONEWEB-0090 w czasie rzeczywistym z AllMySat

Download on the App Store